Location: Cheyres
(46.8153°N, 6.7877°E)
Time: 00:10:25
(UTC+00:00)

Resurs 01 Rocket - Pass Details

Date: 11 May 2021
Orbit: 634 x 644 km, 97.9° (Epoch: 23 June)

Event Time Altitude Azimuth Distance (km) Brightness Sun altitude
Exits shadow 21:39:48 - 227° (SW) 2,710 4.7 -20.5°
Reaches altitude 10° 21:43:27 10° 265° (W) 2,042 4.5 -20.8°
Maximum altitude 21:44:06 10° 273° (W) 2,024 4.6 -20.9°
Drops below altitude 10° 21:44:46 10° 282° (WNW) 2,044 4.7 -20.9°
Sets 21:49:16 0° 325° (NW) 2,959 6.5 -21.3°
